[[{"header":{"parameterUnit":"m.s-1","parameterCategory":1,"la1":30.2991,"la2":30.254,"lo1":-89.0895,"lo2":-89.0444,"dy":0.0017,"dx":0.0017,"nx":28,"ny":28,"refTime":"2025-09-14T09:00:00:Z","depth":0,"parameterNumber":2,"parameterNumberName":"U-component_of_WINDS"},"data":[0,0,0,0,0,0,0,0,0,0,0,0,0,0,0,0,0,0,0,0,0,0,0,0,0,0,0,0,0,0,0,0,0,0,0,0,0,0,0,0,0,0,0,0,0,0,0,0,0,0,0,0,0,0,0,0,0,0,-1.8025,-1.8026,0,-1.8099,-1.81,-1.8101,-1.8078,-1.8076,-1.8075,-1.8073,-1.815,-1.8153,-1.8157,0,0,0,0,0,0,0,0,0,0,0,0,0,-1.7865,-1.7868,-1.8025,-1.8026,-1.8027,-1.8099,-1.81,-1.8101,-1.8078,-1.8076,-1.8075,-1.8073,-1.8149,-1.8153,-1.8157,0,0,0,0,0,0,0,0,0,0,0,0,0,-1.7936,-1.7869,-1.8025,-1.8024,-1.8025,-1.8099,-1.81,-1.8101,-1.8079,-1.8076,-1.8074,-1.8072,-1.8147,-1.8152,-1.8158,-1.8237,0,0,-1.8174,-1.8176,0,0,0,0,0,0,0,0,-1.7932,-1.7942,-1.8024,-1.8025,-1.8025,-1.8077,-1.8071,-1.8147,-1.8079,-1.8058,-1.8073,-1.8071,-1.8128,-1.8134,-1.8153,-1.824,-1.8244,-1.8174,-1.8177,-1.8179,-1.8181,0,0,0,0,0,0,0,-1.7927,-1.7939,-1.8054,-1.8025,-1.8026,-1.802,-1.8028,-1.8086,-1.8105,-1.806,-1.8059,-1.8068,-1.8128,-1.8148,-1.8155,-1.8245,-1.8174,-1.8179,-1.8182,-1.8184,-1.84,-1.8402,0,0,0,0,0,0,-1.7922,-1.7935,-1.8052,-1.8057,-1.7972,-1.8025,-1.8034,-1.8063,-1.8105,-1.8109,-1.8069,-1.8066,-1.8141,-1.8149,-1.8158,-1.8253,-1.8179,-1.8184,-1.8187,-1.8397,-1.84,-1.8403,0,0,0,0,0,0,-1.7918,-1.7932,-1.8049,-1.7995,-1.801,-1.8031,-1.8063,-1.8065,-1.8086,-1.8112,-1.8115,-1.8087,-1.8139,-1.815,-1.8217,-1.8255,-1.8187,-1.8191,-1.8394,-1.8398,-1.8402,-1.8443,0,0,0,0,0,0,-1.7914,-1.7931,-1.7962,-1.7996,-1.8013,-1.8107,-1.8066,-1.8069,-1.8095,-1.8092,-1.8129,-1.8133,-1.8138,-1.8209,-1.8222,-1.8261,-1.8196,-1.8391,-1.8396,-1.84,-1.8439,-1.8448,-1.8456,0,0,0,0,0,-1.7908,-1.7971,-1.7963,-1.7977,-1.8051,-1.811,-1.8119,-1.8124,-1.8098,-1.8129,-1.8145,-1.8132,-1.8249,-1.8216,-1.8231,-1.8271,-1.8388,-1.8394,-1.84,-1.8435,-1.8446,-1.8456,0,0,0,0,0,0,-1.794,-1.7975,-1.7967,-1.8043,-1.8073,-1.8106,-1.8144,-1.8136,-1.8174,-1.8169,-1.8173,-1.8182,-1.8251,-1.8268,-1.8231,-1.835,-1.8315,-1.8324,-1.8336,-1.8348,-1.8356,-1.8351,-1.82,0,0,0,0,0,-1.7956,-1.8001,-1.8029,-1.8093,-1.8108,-1.8124,-1.815,-1.815,-1.8182,-1.8195,-1.8216,-1.8248,-1.8292,-1.832,-1.8362,-1.8441,-1.8449,-1.8476,-1.8485,-1.8492,-1.85,-1.8542,-1.8555,-1.8422,-1.8422,-1.8422,0,0,-1.799,-1.8014,-1.8042,-1.81,-1.8124,-1.817,-1.8135,-1.8185,-1.822,-1.8203,-1.8267,-1.8284,-1.8319,-1.8392,-1.8426,-1.8409,-1.8538,-1.8499,-1.8505,-1.8509,-1.855,-1.8562,-1.8573,-1.8426,-1.8425,-1.8425,0,0,-1.8074,-1.8097,-1.8153,-1.8177,-1.8213,-1.8223,-1.8236,-1.827,-1.828,-1.8344,-1.8333,-1.8373,-1.8449,-1.8474,-1.8497,-1.859,-1.858,-1.8604,-1.865,-1.8692,-1.8702,-1.8711,-1.8745,-1.8757,-1.8612,-1.8612,-1.8612,0,-1.8111,-1.818,-1.8183,-1.8234,-1.8259,-1.8246,-1.8302,-1.8325,-1.8374,-1.8392,-1.8372,-1.8466,-1.8489,-1.8568,-1.859,-1.8609,-1.8625,-1.86,-1.87,-1.871,-1.8718,-1.875,-1.8763,-1.8614,-1.8614,-1.8614,-1.8614,0,-1.8224,-1.8271,-1.8312,-1.8358,-1.8388,-1.8442,-1.8453,-1.8483,-1.8481,-1.8492,-1.8558,-1.8585,-1.8632,-1.865,-1.8649,-1.8729,-1.8717,-1.8699,-1.8664,-1.8734,-1.8764,-1.8776,-1.8618,-1.8617,-1.8617,-1.8616,0,0,-1.8332,-1.8378,-1.8393,-1.8413,-1.8451,-1.8489,-1.8541,-1.8586,-1.8612,-1.8646,-1.869,-1.8754,-1.8737,-1.8763,-1.8764,-1.8801,-1.8872,-1.8778,-1.8779,-1.8794,-1.8962,-1.8976,-1.899,-1.8865,-1.8867,-1.8869,-1.8959,0,-1.8419,-1.8512,-1.8515,-1.86,-1.8644,-1.8631,-1.8677,-1.8705,-1.8717,-1.8757,-1.877,-1.8815,-1.8789,-1.8805,-1.884,-1.8856,-1.8906,-1.885,-1.8907,-1.8909,-1.8899,-1.9005,-1.902,-1.9104,-1.8971,-1.8973,-1.8974,0,-1.8534,-1.8571,-1.8659,-1.8691,-1.8709,-1.8751,-1.8792,-1.883,-1.8861,-1.8868,-1.8896,-1.8892,-1.8946,-1.8908,-1.8983,-1.8944,-1.8968,-1.8979,-1.8982,-1.8988,-1.8946,-1.9014,-1.9131,-1.9143,-1.8993,-1.8991,-1.899,0,-1.8604,-1.8675,-1.8737,-1.8755,-1.8794,-1.8823,-1.884,-1.887,-1.8896,-1.8932,-1.895,-1.8992,-1.9015,-1.9048,-1.9055,-1.9027,-1.9129,-1.9093,-1.9136,-1.9136,-1.9159,-1.9158,-1.9281,-1.9173,-1.9173,-1.9173,-1.9173,0,-1.8702,-1.8757,-1.8769,-1.8808,-1.8868,-1.8872,-1.8932,-1.8947,-1.8973,-1.9014,-1.9005,-1.9044,-1.9051,-1.9091,-1.9097,-1.9158,-1.9168,-1.9175,-1.9176,-1.9176,-1.9175,-1.9192,-1.9186,-1.9176,-1.9176,-1.9175,-1.9174,0,-1.8791,-1.8802,-1.8868,-1.8898,-1.8907,-1.8951,-1.8977,-1.9013,-1.9024,-1.9076,-1.9088,-1.9105,-1.9152,-1.9162,-1.9218,-1.9222,-1.9294,-1.9289,-1.9283,-1.9283,-1.9326,-1.9322,-1.9465,-1.9484,-1.9364,-1.9365,-1.9366,0,-1.8853,-1.8895,-1.8929,-1.8956,-1.8974,-1.9018,-1.9044,-1.9049,-1.9077,-1.9116,-1.9148,-1.9194,-1.9231,-1.9306,-1.9324,-1.9366,-1.9362,-1.9409,-1.9369,-1.9367,-1.9363,-1.9361,-1.9365,-1.9417,-1.9419,-1.942,-1.9421,0,-1.8963,-1.8965,-1.9005,-1.9045,-1.9078,-1.911,-1.9141,-1.9163,-1.9172,-1.9204,-1.9251,-1.928,-1.9336,-1.9382,-1.9424,-1.9442,-1.9433,-1.9433,-1.9446,-1.9446,-1.9441,-1.9445,-1.9305,-1.943,-1.9429,-1.9428,-1.9428,-1.9428,-1.9041,-1.9077,-1.9106,-1.915,-1.9173,-1.9202,-1.9238,-1.9253,-1.9292,-1.9338,-1.9338,-1.939,-1.942,-1.9476,-1.9496,-1.9537,-1.9522,-1.954,-1.9545,-1.9549,-1.9553,-1.9434,-1.9544,-1.9544,-1.9544,-1.9544,-1.9544,0,-1.915,-1.9168,-1.9208,-1.9251,-1.9285,-1.9272,-1.9306,-1.9335,-1.9381,-1.9409,-1.9445,-1.95,-1.9543,-1.9564,-1.9607,-1.9636,-1.9633,-1.9647,-1.9645,-1.965,-1.9564,-1.9549,-1.9649,-1.9649,-1.9649,-1.9649,-1.9649,-1.9649,-1.9211,-1.9271,-1.9277,-1.9349,-1.9367,-1.9417,-1.9437,-1.9464,-1.9486,-1.9547,-1.9583,-1.9596,-1.9621,-1.9666,-1.9706,-1.9711,-1.9727,-1.9744,-1.9747,-1.9666,-1.9656,-1.9646,-1.9632,-1.9747,-1.9747,-1.9829,-1.983,-1.983]},{"header":{"parameterUnit":"m.s-1","parameterCategory":1,"la1":30.2991,"la2":30.254,"lo1":-89.0895,"lo2":-89.0444,"dy":0.0017,"dx":0.0017,"nx":28,"ny":28,"refTime":"2025-09-14T09:00:00:Z","depth":0,"parameterNumber":3,"parameterNumberName":"V-component_of_WINDS"},"data":[0,0,0,0,0,0,0,0,0,0,0,0,0,0,0,0,0,0,0,0,0,0,0,0,0,0,0,0,0,0,0,0,0,0,0,0,0,0,0,0,0,0,0,0,0,0,0,0,0,0,0,0,0,0,0,0,0,0,2.1626,2.1626,0,2.161,2.161,2.161,2.1555,2.1554,2.1553,2.1552,2.1537,2.1537,2.1538,0,0,0,0,0,0,0,0,0,0,0,0,0,2.1611,2.1612,2.1626,2.1626,2.1626,2.161,2.161,2.161,2.1556,2.1554,2.1553,2.1551,2.1536,2.1537,2.1538,0,0,0,0,0,0,0,0,0,0,0,0,0,2.1609,2.1612,2.1626,2.1597,2.1594,2.161,2.161,2.161,2.1556,2.1554,2.1552,2.1551,2.1536,2.1537,2.1538,2.1582,0,0,2.1542,2.1542,0,0,0,0,0,0,0,0,2.1609,2.161,2.1601,2.1599,2.1596,2.1583,2.1599,2.16,2.1556,2.1571,2.1552,2.155,2.1554,2.1553,2.1554,2.1581,2.1581,2.1542,2.1543,2.1543,2.1543,0,0,0,0,0,0,0,2.1609,2.161,2.162,2.1601,2.1598,2.1585,2.1583,2.1599,2.1573,2.1569,2.1565,2.1564,2.1552,2.1553,2.1554,2.158,2.1542,2.1543,2.1543,2.1544,2.1642,2.1643,0,0,0,0,0,0,2.1614,2.161,2.162,2.1619,2.1598,2.1587,2.1584,2.1589,2.1572,2.1568,2.1566,2.1561,2.1552,2.1552,2.1553,2.1601,2.1543,2.1544,2.1545,2.164,2.1642,2.1644,0,0,0,0,0,0,2.1613,2.1615,2.1621,2.1614,2.1614,2.1589,2.1595,2.159,2.1591,2.157,2.1565,2.1572,2.1551,2.1551,2.1575,2.16,2.1545,2.1546,2.1637,2.164,2.1643,2.17,0,0,0,0,0,0,2.1613,2.1615,2.1631,2.1615,2.1614,2.1643,2.1596,2.1591,2.1593,2.1587,2.1574,2.157,2.1549,2.1573,2.1576,2.1601,2.1546,2.1635,2.1639,2.1642,2.1696,2.1705,2.1712,0,0,0,0,0,2.1613,2.1648,2.1632,2.1634,2.1633,2.1645,2.1644,2.1619,2.1595,2.1611,2.1597,2.1571,2.1598,2.1576,2.1579,2.1604,2.1633,2.1638,2.1642,2.1692,2.1703,2.1712,0,0,0,0,0,0,2.1669,2.1646,2.1627,2.1658,2.1654,2.1635,2.1654,2.1632,2.1634,2.1629,2.1599,2.1596,2.1624,2.1617,2.1593,2.1645,2.1611,2.1616,2.1648,2.1658,2.1666,2.1667,2.1547,0,0,0,0,0,2.1685,2.1695,2.1675,2.1704,2.1703,2.1679,2.1683,2.1664,2.1659,2.1656,2.1644,2.164,2.1647,2.1653,2.1659,2.1695,2.1691,2.1714,2.1722,2.1729,2.1733,2.1751,2.1761,2.1658,2.1658,2.1658,0,0,2.1718,2.1706,2.1715,2.1715,2.1709,2.1721,2.1678,2.1692,2.1701,2.1659,2.1679,2.1671,2.1664,2.1694,2.1707,2.1689,2.1761,2.1735,2.174,2.174,2.1757,2.1766,2.1775,2.1661,2.1661,2.166,0,0,2.1783,2.1776,2.1799,2.1794,2.1786,2.177,2.1776,2.1761,2.1753,2.1774,2.1743,2.1753,2.1767,2.1763,2.1762,2.1828,2.1803,2.1831,2.1872,2.189,2.1898,2.1905,2.1927,2.1935,2.1835,2.1835,2.1835,0,2.1825,2.1841,2.1814,2.183,2.1831,2.1794,2.1817,2.1814,2.1808,2.181,2.179,2.1806,2.1799,2.1827,2.1843,2.1845,2.185,2.1831,2.1899,2.1906,2.1912,2.1932,2.1941,2.1839,2.1838,2.1838,2.1838,0,2.1892,2.1904,2.1924,2.1918,2.1921,2.1941,2.1918,2.1925,2.1906,2.1893,2.1914,2.1905,2.1907,2.1913,2.1896,2.1939,2.1928,2.1905,2.1869,2.1925,2.1944,2.1952,2.1843,2.1842,2.1841,2.184,0,0,2.199,2.197,2.1978,2.1975,2.1963,2.1972,2.199,2.1992,2.1998,2.1996,2.201,2.2023,2.2001,2.2001,2.1983,2.1999,2.205,2.1973,2.1973,2.1986,2.2095,2.2112,2.2121,2.2034,2.2036,2.2037,2.2095,0,2.2051,2.208,2.2057,2.209,2.21,2.2065,2.2081,2.2076,2.2065,2.2072,2.2059,2.2068,2.2039,2.2039,2.2054,2.204,2.2071,2.2036,2.2046,2.2047,2.2047,2.2131,2.2148,2.2204,2.2103,2.2104,2.2105,0,2.2125,2.2125,2.2159,2.2145,2.2148,2.2163,2.2163,2.2171,2.2165,2.2155,2.2155,2.2133,2.215,2.2117,2.214,2.2117,2.2121,2.2115,2.2117,2.2115,2.2078,2.213,2.2221,2.2229,2.2116,2.2115,2.2115,0,2.2191,2.22,2.2221,2.222,2.2205,2.2216,2.221,2.2202,2.2205,2.2205,2.2207,2.221,2.2211,2.2214,2.2194,2.2172,2.2219,2.2185,2.2211,2.2212,2.2221,2.222,2.2312,2.2226,2.2226,2.2226,2.2226,0,2.226,2.2281,2.2251,2.2264,2.2287,2.2261,2.2285,2.2276,2.227,2.228,2.2252,2.2262,2.2235,2.2244,2.2228,2.2249,2.225,2.2242,2.2238,2.2244,2.2244,2.2244,2.2239,2.2228,2.2228,2.2227,2.2227,0,2.2336,2.2317,2.2337,2.2321,2.2318,2.2336,2.2322,2.2334,2.2321,2.2335,2.2336,2.2316,2.2324,2.2304,2.231,2.2299,2.2329,2.2319,2.233,2.2326,2.2353,2.235,2.2447,2.2457,2.2367,2.2368,2.2368,0,2.238,2.2396,2.2382,2.2386,2.2382,2.2391,2.2393,2.2369,2.2373,2.2367,2.2379,2.2385,2.2388,2.2403,2.2388,2.2393,2.2381,2.2415,2.2382,2.2387,2.238,2.2378,2.2379,2.2421,2.2422,2.2423,2.2424,0,2.246,2.245,2.2454,2.2455,2.2459,2.2459,2.2457,2.2463,2.2437,2.2443,2.2451,2.2453,2.2458,2.2464,2.2465,2.246,2.2437,2.2435,2.2441,2.2446,2.2451,2.2447,2.2347,2.2432,2.2431,2.243,2.243,2.243,2.252,2.2532,2.2524,2.253,2.2526,2.2525,2.2534,2.2523,2.2528,2.253,2.2516,2.2527,2.252,2.2519,2.2516,2.2524,2.2509,2.2518,2.252,2.2522,2.2526,2.2452,2.2525,2.2525,2.2524,2.2524,2.2524,0,2.2597,2.259,2.2596,2.2594,2.2598,2.2577,2.2574,2.258,2.2589,2.2585,2.2588,2.2597,2.2603,2.259,2.2593,2.2602,2.2592,2.2604,2.2602,2.2601,2.254,2.2534,2.2612,2.2612,2.2612,2.2612,2.2612,2.2612,2.2637,2.2656,2.2645,2.2662,2.2655,2.2664,2.2664,2.2663,2.266,2.267,2.2675,2.2666,2.2658,2.2661,2.2666,2.2662,2.2664,2.2679,2.2671,2.2614,2.2605,2.2597,2.2591,2.268,2.268,2.2731,2.2731,2.2732]}]]